Temperature
9 10 10 11 13 13 13 13 13 13 12 13 13 14 15 15 14 15 15 15 15 14 14 14 15 15 16 16 16 16 16 17 16 16 16 16 17 17 17 17 17 17 16 16
9 10 11 12 12 12 13 13 13 12 12 13 13 13 14 14 13 13 13 13 13 13 13 12 14 14 15 15 15 16 16 16 16 16 16 16 16 16 17 17 17 17 17 16
9 10 11 11 11 11 12 12 12 12 11 11 12 14 13 12 12 11 11 11 11 11 11 11 12 13 14 14 15 15 15 15 16 15 15 15 15 15 15 16 16 17 17 16
8 9 10 10 11 11 11 11 12 11 12 12 12 14 13 12 12 12 11 11 11 10 10 10 11 11 12 13 14 14 14 15 15 15 15 15 14 14 15 15 15 16 16 16
8 9 10 10 10 11 10 10 11 11 11 12 12 13 14 12 12 12 12 11 10 10 10 10 10 11 12 12 13 13 14 14 14 14 14 14 14 14 14 14 14 14 14 15
8 8 9 9 9 10 9 10 9 10 11 11 12 13 14 13 12 12 12 11 10 9 9 9 10 11 11 12 12 13 13 13 13 14 14 14 14 13 13 13 13 14 14 14
7 8 8 9 8 8 9 10 10 10 10 12 10 11 14 12 12 12 11 10 10 9 9 9 10 10 11 11 12 12 12 12 13 13 13 13 13 13 13 13 13 13 13 13
8 8 8 8 9 9 9 10 11 11 12 12 9 11 13 11 11 10 10 10 9 9 9 8 9 9 10 10 10 11 11 11 12 12 12 12 12 12 12 12 12 12 12 12
9 8 8 8 8 9 9 9 10 10 10 11 12 11 11 11 11 11 10 10 9 9 8 8 8 8 9 9 9 9 10 10 10 11 11 11 11 12 12 12 12 12 12 12
9 7 7 8 8 8 9 9 9 9 10 12 13 12 13 11 11 11 11 11 9 8 7 7 7 7 7 8 8 8 8 9 9 9 10 10 10 11 11 11 11 11 11 11
9 8 7 8 8 8 8 8 9 9 9 11 13 13 13 12 12 12 11 10 9 8 7 6 6 6 6 6 7 7 7 8 8 8 9 9 9 9 10 10 10 10 10 10
9 9 7 7 7 8 9 9 9 9 8 8 10 12 11 12 12 11 10 9 8 7 6 5 5 5 5 6 6 6 6 7 7 7 7 8 8 8 8 8 9 9 9 9
9 8 7 7 7 7 8 8 8 8 8 8 10 12 10 11 11 10 10 9 7 6 5 4 4 4 4 5 5 5 6 6 6 6 6 7 7 7 7 7 7 7 7 7
9 8 8 9 9 8 7 7 8 7 7 8 9 11 11 11 11 11 10 8 7 5 4 4 3 3 4 4 4 4 5 5 5 5 5 5 5 5 5 5 6 6 6 6
9 8 8 8 7 7 7 7 7 7 8 8 10 10 11 12 11 10 9 7 6 5 3 3 3 3 3 3 3 3 4 4 4 4 4 4 4 4 4 4 4 4 4 4
9 8 7 7 7 7 7 7 7 7 8 8 9 9 11 11 10 9 8 7 6 4 3 2 2 2 2 2 2 2 3 3 3 3 3 3 3 3 2 3 3 2 2 2
8 8 7 8 7 7 7 8 8 8 8 8 8 10 11 10 10 9 8 6 5 3 2 2 1 1 1 1 1 2 2 2 2 2 2 2 2 1 1 1 1 1 0 0
8 8 7 7 7 6 10 9 9 8 9 9 9 10 10 10 8 7 6 5 4 3 2 1 1 1 1 1 1 1 1 1 1 1 1 1 1 0 0 0 0 -0 -1 -1
8 8 7 7 7 8 9 9 8 8 9 9 9 9 9 8 7 6 4 4 3 2 2 1 1 0 0 0 0 0 0 0 0 0 -0 -0 -0 -0 -0 -0 -1 -1 -1 -1
7 8 7 7 7 8 10 9 8 9 9 10 9 9 9 7 9 9 4 4 3 2 1 1 0 0 -0 -0 -0 -0 -0 -0 -0 -1 -1 -1 -1 -1 -1 -1 -1 -1 -1 -1
6 6 6 7 7 9 10 8 8 9 10 9 9 9 8 8 8 6 4 3 2 2 1 1 0 -0 -0 -0 -1 -1 -1 -1 -1 -1 -1 -1 -1 -1 -1 -1 -1 -1 -1 -1
7 7 7 7 7 8 9 8 9 10 8 8 8 7 7 6 5 5 4 3 2 2 1 1 0 -0 -0 -1 -1 -1 -1 -1 -1 -1 -1 -1 -1 -1 -1 -1 -1 -1 -2 -2
8 8 9 9 9 9 8 8 8 8 8 7 7 7 6 5 4 4 3 3 2 2 1 1 0 -0 -0 -1 -1 -1 -1 -1 -1 -1 -1 -1 -1 -1 -1 -1 -1 -2 -2 -2
8 7 8 8 9 8 8 8 7 7 7 7 7 7 6 6 5 4 3 3 2 2 1 1 0 0 -0 -0 -1 -0 -0 -1 -1 -1 -1 -1 -1 -1 -1 -2 -2 -2 -3 -3
8 7 7 8 9 8 8 7 7 7 7 7 7 6 6 6 5 4 4 3 2 2 2 1 1 0 0 0 -0 -0 -0 -1 -1 -1 -1 -1 -1 -1 -2 -2 -2 -3 -3 -3
7 8 8 9 9 8 8 7 7 7 7 6 6 6 6 5 5 4 4 3 3 2 2 1 1 1 0 0 -0 -0 -0 -1 -1 -1 -1 -1 -1 -2 -2 -2 -3 -3 -3 -4
Wind_Speed
11 10 15 18 15 6 12 12 11 8 4 7 9 10 11 10 11 12 12 11 10 9 8 7 7 7 7 8 10 11 12 13 12 11 11 12 13 13 12 13 17 18 18 19
8 12 13 13 11 7 12 12 9 6 3 3 5 10 8 5 5 5 5 5 4 4 3 3 3 3 4 5 7 9 10 11 12 11 11 11 12 11 13 12 15 19 19 20
7 7 13 14 13 10 9 9 8 6 4 3 4 5 4 4 4 5 4 4 3 3 3 4 4 4 3 3 4 5 7 8 9 11 10 9 10 10 10 12 14 16 19 20
5 7 13 15 14 11 7 5 6 6 5 3 2 3 5 6 7 8 8 7 7 6 6 6 6 7 6 6 5 4 4 5 5 7 9 13 12 13 15 13 13 14 16 18
5 8 13 13 11 9 5 6 5 3 2 2 4 5 5 7 8 7 7 7 7 7 7 8 8 7 7 7 6 5 5 4 4 4 6 10 13 13 12 12 14 14 14 15
5 3 4 5 5 8 10 7 5 3 2 5 5 7 6 7 9 8 6 6 6 7 7 7 8 7 8 8 7 7 6 6 5 4 4 7 10 12 13 14 14 13 11 11
5 4 3 5 8 6 6 6 4 4 5 5 4 5 4 7 6 6 4 4 5 6 7 8 9 9 9 10 10 9 8 8 7 6 5 6 8 10 12 13 13 13 11 11
6 5 3 2 4 7 7 5 4 4 4 3 4 6 3 5 5 4 2 1 4 6 7 8 9 9 9 10 10 10 10 9 9 8 7 7 7 7 8 10 11 11 10 11
6 5 3 4 3 6 6 5 1 1 1 3 5 4 3 5 7 6 2 2 4 6 6 7 8 8 9 9 10 10 10 10 10 10 9 8 7 7 8 9 9 9 9 8
5 6 4 4 5 5 1 5 4 4 3 4 4 5 7 14 12 7 2 3 5 5 5 6 7 8 8 9 9 9 10 10 10 10 9 7 8 8 7 7 7 6 7 6
5 6 5 4 4 6 6 4 3 3 2 3 3 3 4 14 12 6 2 4 5 5 5 5 6 7 7 8 8 9 9 10 10 10 9 9 8 7 7 5 5 4 3 3
3 4 5 2 1 2 4 5 6 4 3 3 2 1 4 9 8 3 3 4 4 3 3 4 5 6 7 8 9 9 9 9 10 9 9 8 8 7 7 6 6 4 3 3
5 5 6 4 3 4 4 5 5 2 2 4 3 2 4 6 5 4 5 4 3 2 3 4 5 6 7 8 8 9 9 9 9 9 8 9 9 9 8 8 8 8 7 8
4 3 2 3 2 6 6 8 9 6 4 5 6 3 4 5 5 6 6 4 3 2 3 4 5 6 6 7 7 8 8 9 8 9 9 10 10 10 10 10 10 10 10 10
2 2 2 1 2 4 5 9 13 12 9 7 5 6 8 7 7 7 5 4 3 2 3 4 4 5 6 6 7 8 8 8 8 9 10 10 10 11 11 12 12 12 12 12
2 3 2 1 2 4 7 10 13 14 14 14 12 12 10 8 5 6 6 4 3 1 1 2 3 4 5 6 6 7 7 8 8 10 10 9 10 11 11 12 12 13 13 13
4 4 2 2 1 3 8 12 16 11 11 11 13 10 8 8 8 7 5 3 2 1 1 1 2 3 4 5 5 6 7 7 8 9 9 9 10 11 11 11 12 12 12 12
6 5 2 1 2 6 1 2 7 13 13 14 12 11 10 9 7 5 2 2 2 2 2 2 1 2 3 4 5 6 7 7 8 9 9 9 9 10 10 11 11 11 10 10
4 5 3 2 3 6 4 4 6 7 6 11 15 14 11 5 4 3 3 3 3 3 3 2 2 3 3 4 5 6 7 7 8 8 8 8 8 9 9 10 10 9 9 10
3 3 3 3 4 4 0 2 5 4 3 3 7 8 6 3 4 1 6 5 5 4 4 3 3 4 4 4 4 6 7 7 7 7 7 8 8 9 9 9 9 8 8 9
5 4 6 6 5 6 3 3 6 4 2 2 2 4 4 4 3 3 7 6 5 5 5 4 4 4 4 4 5 6 7 7 6 6 7 8 8 8 8 8 8 8 8 8
9 7 7 6 7 6 3 6 5 1 1 1 3 3 4 3 2 5 6 7 7 6 6 5 5 4 4 4 6 7 6 5 6 7 7 7 7 7 7 8 7 7 7 7
8 8 5 7 5 0 3 4 2 2 3 3 3 3 3 4 5 7 7 8 8 8 7 6 6 6 4 4 5 7 5 6 7 7 7 7 7 7 6 6 6 5 5 4
6 6 5 6 7 7 6 6 5 4 5 4 4 3 4 5 6 8 8 8 9 8 8 7 8 7 6 5 5 6 6 6 7 7 7 6 6 6 6 5 4 4 4 3
5 7 6 7 6 5 4 3 2 2 2 2 2 3 4 5 7 8 8 9 9 9 8 8 8 8 7 7 6 6 7 7 7 7 6 6 5 5 5 5 4 4 4 3
6 8 7 6 4 4 2 1 1 1 2 2 2 3 4 5 7 8 8 9 10 10 9 9 9 8 8 8 7 6 6 7 7 6 6 4 4 4 4 4 4 5 4 4
Wind_Direction
169 178 186 186 191 207 181 184 185 184 158 204 226 244 253 260 260 259 260 262 263 268 281 291 288 276 262 252 247 244 241 238 234 229 224 222 225 228 228 229 231 229 226 222
159 193 183 173 171 158 172 179 172 150 145 211 239 257 263 270 262 268 267 264 270 283 299 325 325 306 279 266 261 255 249 246 241 235 232 231 232 233 232 230 232 230 228 224
163 166 161 167 173 164 171 184 174 156 148 154 273 240 170 109 100 93 89 89 78 52 33 27 27 25 15 349 316 291 275 264 255 250 244 239 237 238 236 233 232 231 229 227
129 149 166 174 182 182 167 165 157 156 188 182 270 222 151 129 112 97 90 80 67 56 51 45 39 35 27 14 360 340 314 290 274 256 244 238 235 236 237 237 238 237 233 230
130 157 169 177 180 177 133 122 127 140 182 228 214 236 168 155 140 114 94 74 58 49 44 41 36 30 26 17 7 359 352 342 320 278 252 247 245 248 251 250 249 246 241 234
94 92 139 149 128 136 126 111 96 104 206 235 205 218 188 171 157 137 108 71 50 41 36 34 29 24 22 17 10 2 355 351 344 324 287 258 256 255 255 253 251 250 247 240
103 91 86 120 118 129 153 157 169 190 207 219 155 221 212 148 150 145 118 65 38 29 25 21 17 12 8 5 2 357 352 345 343 333 315 292 274 267 261 259 256 254 251 245
136 132 118 131 149 161 173 197 216 210 204 171 181 224 157 144 157 163 155 37 21 22 18 15 10 3 359 357 355 352 347 341 339 334 324 309 294 278 270 266 264 261 258 255
140 120 91 80 93 145 157 192 314 63 85 239 206 215 211 175 174 171 154 43 18 11 9 6 3 360 356 354 352 348 343 339 338 333 325 317 311 297 285 278 272 268 264 264
116 122 124 120 106 52 131 148 164 195 219 229 202 207 183 172 170 165 111 22 9 5 4 2 0 359 357 354 351 350 348 342 338 336 332 324 320 315 306 294 286 281 277 269
111 122 136 157 185 172 152 164 180 181 254 250 213 150 146 167 164 156 43 3 353 354 357 358 359 0 358 358 357 357 355 352 350 348 343 341 339 337 332 324 320 314 306 294
104 121 133 137 45 251 213 192 180 200 207 227 268 132 119 168 170 190 322 337 344 354 0 0 2 3 4 5 4 3 2 1 358 355 357 359 1 5 7 8 9 16 31 44
136 133 133 154 187 190 206 193 193 153 145 197 224 144 124 176 199 256 305 325 340 360 6 9 12 11 10 8 7 7 9 7 6 10 17 22 24 26 30 33 37 47 58 66
123 139 205 196 162 171 192 194 189 180 198 211 234 237 194 209 255 299 315 321 337 5 9 14 15 14 14 12 12 14 17 17 19 28 36 39 39 41 44 48 53 58 64 70
130 138 141 119 133 172 204 202 199 208 216 224 240 248 257 272 288 299 303 309 317 347 13 20 17 16 17 18 21 23 26 28 35 44 47 46 48 53 56 59 61 63 66 70
135 139 150 195 201 226 241 227 216 221 229 239 257 272 273 281 276 284 292 296 296 319 19 29 26 24 23 25 27 31 35 38 46 53 53 53 56 59 61 63 66 68 69 71
160 157 176 216 204 259 254 231 214 212 214 222 236 246 267 280 287 296 293 274 254 207 104 55 38 37 35 35 37 43 45 50 57 61 60 60 64 66 67 68 70 71 72 74
164 164 179 220 221 242 234 126 206 218 229 225 239 254 267 283 298 299 270 213 179 162 147 119 86 71 60 58 59 61 62 64 67 67 66 67 69 71 71 72 72 73 74 75
174 176 186 212 252 274 272 207 186 198 238 227 233 252 267 286 284 234 161 154 150 148 138 126 112 98 84 75 75 77 74 72 72 69 67 70 75 79 77 76 74 75 78 76
140 181 202 208 246 252 105 126 172 190 224 182 209 241 260 243 271 202 150 151 145 140 137 132 124 109 97 89 92 90 81 77 73 71 72 76 79 83 82 80 79 78 80 81
174 189 212 224 246 269 255 162 162 210 152 135 217 254 246 236 280 120 147 152 149 145 141 136 128 116 106 108 106 95 86 80 81 84 84 82 81 84 86 85 83 86 88 88
194 196 204 208 226 247 149 162 199 273 53 244 262 262 247 230 159 154 163 160 159 156 150 145 135 123 115 116 115 106 96 97 96 92 86 83 83 86 90 91 89 90 94 94
209 210 207 214 230 338 174 208 253 287 265 266 261 252 226 207 195 180 176 171 169 165 157 152 145 135 125 123 126 120 118 119 110 101 94 91 90 87 91 95 97 94 90 91
213 209 223 246 254 254 251 253 258 256 263 272 263 242 215 214 196 185 180 176 174 170 164 159 157 151 141 133 128 127 132 131 122 115 109 106 101 96 92 89 88 90 89 92
209 185 213 241 257 267 251 226 245 273 274 270 255 229 222 205 195 189 184 181 176 171 168 168 168 159 151 145 141 142 145 143 134 126 120 114 107 106 99 90 80 82 77 60
203 201 207 228 219 220 205 119 327 281 268 263 251 236 217 204 197 189 187 182 176 173 171 172 171 165 159 157 153 155 158 156 146 139 136 130 126 121 118 115 104 74 70 77
Height
1477 1481 1481 1481 1484 1484 1486 1490 1493 1496 1502 1502 1501 1501 1500 1500 1501 1501 1501 1501 1502 1502 1502 1501 1501 1501 1502 1504 1505 1507 1508 1510 1512 1512 1513 1513 1514 1515 1516 1517 1519 1520 1521 1521
1478 1478 1478 1482 1487 1488 1488 1490 1493 1499 1502 1501 1501 1499 1497 1499 1499 1499 1498 1498 1498 1498 1498 1497 1496 1496 1497 1498 1499 1500 1502 1504 1505 1506 1507 1507 1509 1509 1510 1511 1512 1513 1514 1515
1474 1477 1480 1484 1487 1489 1490 1490 1492 1496 1502 1503 1501 1493 1495 1498 1499 1499 1498 1497 1497 1497 1496 1495 1493 1493 1493 1493 1494 1495 1496 1497 1498 1499 1500 1501 1502 1502 1503 1504 1504 1506 1507 1507
1477 1479 1481 1484 1486 1487 1491 1493 1495 1497 1496 1496 1499 1489 1492 1496 1497 1498 1498 1497 1497 1496 1495 1493 1492 1491 1490 1490 1490 1491 1491 1492 1492 1493 1494 1494 1495 1495 1496 1497 1498 1499 1499 1500
1478 1479 1481 1483 1486 1488 1493 1496 1498 1499 1498 1498 1498 1493 1486 1494 1495 1497 1498 1498 1497 1496 1494 1493 1491 1490 1489 1489 1488 1488 1488 1488 1488 1488 1488 1489 1489 1490 1491 1491 1491 1492 1492 1492
1480 1483 1483 1485 1489 1491 1496 1499 1502 1502 1500 1497 1493 1492 1484 1488 1492 1495 1497 1498 1497 1496 1494 1493 1491 1490 1489 1488 1487 1486 1485 1485 1484 1484 1483 1483 1483 1484 1484 1484 1484 1484 1484 1485
1483 1485 1487 1488 1492 1496 1495 1497 1499 1499 1497 1489 1498 1495 1483 1489 1493 1495 1497 1497 1497 1495 1494 1492 1490 1488 1487 1485 1484 1483 1482 1482 1481 1480 1479 1478 1478 1478 1477 1478 1477 1477 1477 1477
1479 1486 1489 1489 1489 1491 1494 1494 1492 1488 1485 1485 1500 1491 1484 1490 1494 1496 1497 1497 1496 1494 1492 1490 1488 1486 1485 1483 1481 1480 1479 1478 1477 1476 1474 1474 1473 1472 1471 1471 1471 1470 1470 1470
1474 1486 1491 1491 1491 1491 1494 1494 1495 1492 1495 1489 1482 1486 1488 1491 1493 1494 1495 1495 1494 1493 1491 1489 1487 1484 1483 1481 1479 1477 1475 1474 1472 1471 1470 1469 1467 1466 1466 1465 1464 1463 1463 1463
1475 1486 1491 1492 1493 1496 1494 1494 1496 1496 1491 1480 1476 1478 1476 1486 1488 1491 1492 1492 1492 1491 1489 1487 1485 1482 1480 1478 1476 1474 1472 1470 1468 1466 1464 1463 1462 1461 1460 1459 1458 1457 1457 1457
1476 1483 1492 1492 1492 1492 1496 1497 1494 1493 1492 1484 1474 1473 1475 1479 1484 1488 1489 1490 1490 1489 1487 1485 1483 1480 1478 1476 1473 1471 1468 1466 1464 1462 1460 1458 1457 1456 1455 1454 1453 1452 1451 1451
1478 1480 1488 1492 1495 1493 1492 1491 1493 1493 1495 1494 1484 1479 1480 1481 1484 1487 1488 1488 1487 1486 1485 1483 1480 1478 1476 1473 1471 1468 1466 1463 1461 1458 1456 1454 1453 1452 1450 1449 1448 1447 1447 1446
1478 1482 1488 1491 1496 1496 1492 1493 1493 1495 1495 1494 1485 1478 1482 1483 1484 1485 1485 1485 1485 1484 1482 1480 1478 1476 1473 1471 1469 1466 1464 1461 1459 1456 1454 1452 1450 1449 1447 1446 1445 1444 1443 1443
1478 1480 1481 1479 1478 1485 1489 1491 1492 1494 1493 1490 1485 1478 1479 1480 1481 1482 1482 1482 1482 1481 1479 1478 1476 1474 1472 1469 1467 1465 1462 1460 1457 1455 1453 1451 1449 1448 1446 1445 1444 1443 1442 1441
1478 1481 1483 1484 1485 1486 1486 1487 1490 1491 1487 1486 1480 1480 1476 1477 1479 1479 1480 1479 1479 1478 1477 1475 1474 1472 1470 1468 1466 1464 1461 1459 1457 1455 1453 1451 1449 1448 1446 1445 1444 1443 1442 1442
1478 1481 1484 1485 1486 1486 1485 1483 1484 1485 1484 1483 1482 1479 1474 1475 1477 1477 1476 1476 1476 1475 1474 1473 1471 1470 1469 1467 1465 1463 1461 1459 1457 1455 1453 1452 1450 1449 1447 1446 1445 1445 1444 1444
1478 1480 1483 1481 1485 1484 1478 1473 1476 1478 1477 1478 1478 1474 1472 1473 1473 1473 1473 1473 1473 1472 1472 1471 1470 1469 1468 1466 1465 1463 1461 1459 1458 1456 1455 1453 1452 1451 1450 1449 1448 1448 1448 1448
1478 1479 1482 1481 1484 1483 1468 1469 1470 1471 1471 1473 1471 1470 1470 1471 1471 1470 1470 1470 1470 1470 1469 1469 1468 1467 1467 1465 1464 1463 1461 1460 1459 1457 1456 1455 1454 1453 1453 1452 1452 1452 1452 1452
1478 1479 1480 1481 1478 1470 1466 1467 1469 1470 1467 1466 1468 1468 1468 1469 1468 1467 1467 1467 1468 1467 1467 1467 1467 1466 1466 1465 1464 1463 1462 1461 1460 1460 1459 1458 1457 1457 1456 1456 1456 1456 1456 1456
1480 1479 1479 1479 1478 1469 1463 1465 1466 1468 1463 1463 1464 1465 1466 1467 1464 1464 1465 1465 1465 1465 1465 1465 1465 1465 1465 1465 1464 1464 1463 1463 1462 1462 1461 1461 1460 1460 1460 1460 1460 1460 1460 1460
1479 1479 1478 1476 1474 1463 1462 1464 1466 1467 1462 1463 1463 1463 1464 1464 1463 1464 1463 1463 1464 1464 1464 1464 1464 1465 1465 1465 1465 1465 1464 1464 1464 1464 1464 1464 1464 1463 1463 1463 1463 1463 1463 1463
1469 1471 1472 1471 1471 1465 1461 1463 1463 1461 1461 1461 1461 1461 1461 1461 1460 1460 1461 1461 1462 1462 1463 1463 1464 1464 1465 1465 1465 1466 1466 1466 1466 1467 1467 1466 1466 1466 1466 1466 1466 1466 1465 1465
1464 1463 1462 1463 1461 1459 1460 1460 1460 1460 1460 1459 1459 1459 1458 1458 1458 1458 1459 1460 1460 1461 1462 1463 1463 1464 1465 1466 1466 1467 1468 1468 1468 1469 1469 1469 1469 1469 1468 1468 1468 1467 1467 1466
1461 1462 1462 1460 1457 1457 1458 1458 1458 1458 1457 1457 1456 1456 1455 1455 1455 1456 1457 1458 1459 1460 1461 1462 1463 1464 1465 1466 1467 1468 1469 1469 1470 1470 1471 1471 1471 1470 1470 1470 1469 1468 1468 1467
1455 1458 1458 1456 1455 1455 1454 1455 1455 1455 1454 1454 1453 1453 1453 1453 1452 1453 1454 1455 1457 1458 1459 1461 1462 1464 1465 1466 1468 1469 1469 1470 1471 1471 1472 1472 1472 1471 1471 1470 1469 1469 1468 1467
1452 1453 1453 1450 1451 1452 1453 1453 1452 1452 1452 1451 1451 1450 1450 1450 1450 1451 1452 1453 1454 1456 1458 1460 1461 1463 1465 1466 1468 1469 1470 1471 1472 1472 1472 1472 1472 1472 1471 1470 1469 1468 1468 1466